Погода в Лафайетте

США     30°11′57″N   92°02′30″W
темп.,
°C
ветер,
м/с
пор.,
м/с
влажн.,
%
обл.,
%
осадки,
мм/ч
давл.,
гПа
погр.,
м
31 июля, сб
сб3101:00+25з229186 0.2 101733
04:00+24з229479 0.9 101734
07:00+24сз229496 0.9 101750
10:00+29з228034 0.0 1018428
13:00+32зюз226597 0.1 10171268
16:00+33с1156100 0.1 10161827
19:00+31ю3374100 0.1 101564
22:00+26юз3784100 0.0 1016149
1 августа, вс
вс101:00+25юз378668 0.0 1015138
04:00+24зсз34915 0.0 101688
07:00+24з249321 0.0 101785
10:00+29з3478100 0.0 1017565
13:00+32зюз336552 0.0 10171207
16:00+33з22605 0.0 10151243
19:00+29ююз478312 0.9 1013196
22:00+26зюз3591100 0.1 1016102
2 августа, пн
пн201:00+25з129296 0.3 101616
04:00+24з259552 0.0 1015107
07:00+24з259511 4.2 1016132
10:00+28з4682100 1.6 1016412
13:00+31зсз346697 4.9 10151271
16:00+32сз2364100 0.1 10131310
19:00+29ююз347972 0.8 101284
22:00+25зюз3489100 2.9 101462
3 августа, вт
вт301:00+24св2295100 3.3 101338
04:00+22ссв2499100 10.2 1013128
07:00+23ссв239632 11.4 101388
10:00+27с118313 0.1 1014420
13:00+29ссз237629 4.5 1014791
16:00+29ссв4577100 2.1 1012951
19:00+27ссв36850 4.1 1012231
22:00+23ссв49917 0.4 1013180
4 августа, ср
ср401:00+22св38895 0.4 1013172
04:00+20св368693 0.0 1014102
07:00+19ссв348626 0.0 101568
10:00+24с477285 0.0 1016364
13:00+27с5760100 0.0 1016947
16:00+28с5964100 0.0 10151282
19:00+25с37775 0.0 1014190
22:00+22ссв49720 0.0 1015142